(189) Phthia
ephemeris date magn radius delta ra dec elong phase
Today26 Jul 202614.72.539 AU2.868 AU12h14m-01°27'61.2°20.5°
Opposition14 Jul 202712.42.431 AU1.422 AU19h30m-12°50'171.1°3.7°
(189) Phthia - 2026-07-26
astro.vanbuitenen.nl


 
-1 year
-1 month
-1 day
Now
+1 day
+1 month
+1 year

The interactive orbit chart above shows the body's path through the solar system and its position at the given date. Green and blue lines are shown perpendicular to the ecliptic plane: Green if the path is above the ecliptic plane, blue if it is below. (Left-click and drag to rotate the view; Right-click and drag to move the view; Use scroll wheel to zoom in our out.)

The orbital elements of Phthia are:

            e (Eccentricity)                : 0.0374143
            a (Semimajor axis)              : 2.4499324
            i (Inclination)                 : 5.17370
            Ω (Longitude of ascending node) : 203.26618
            ω (Argument of perihelion)      : 169.01582
            M (Mean anomaly)                : 180.96737
            Epoch                           : 2026 Jun 09

            L (Longitude of perihelion)     : 192.32567
            B (Latitude of perihelion)      : 0.98450
            P (Orbital period in years)     : 3.83            
        

The light curve chart below shows the estimated development of the minor planet's magnitude.


The all-sky chart below shows the path of the minor planet over the same period as the light curve. The current position is marked yellow.





The following chart shows the path of the minor planet in the next few days. The field of view is optimized for (~10x50) binoculars and finderscopes.




Ephemerides:
Date       Time       RA (2000)    DEC (2000)    delta   radius  elong  phase   PA    magn
2026-07-26 00:00 UT   12 14 23.1   -01 27 37     2.868    2.539   61.2   20.5   113   14.7 
2026-07-26 14:40 UT   12 15 13.0   -01 32 15     2.874    2.539   60.8   20.4   113   14.7 
2026-07-27 00:00 UT   12 15 44.8   -01 35 13     2.879    2.539   60.6   20.4   113   14.7 
2026-07-28 00:00 UT   12 17 06.9   -01 42 52     2.890    2.539   60.0   20.3   113   14.7 
2026-07-29 00:00 UT   12 18 29.3   -01 50 34     2.900    2.539   59.4   20.1   113   14.7 
2026-07-30 00:00 UT   12 19 52.2   -01 58 19     2.911    2.539   58.8   20.0   113   14.7 
2026-07-31 00:00 UT   12 21 15.5   -02 06 07     2.922    2.539   58.2   19.9   113   14.7 
2026-08-01 00:00 UT   12 22 39.1   -02 13 57     2.933    2.539   57.7   19.7   113   14.7 
2026-08-02 00:00 UT   12 24 03.2   -02 21 49     2.943    2.539   57.1   19.6   113   14.7 
2026-08-03 00:00 UT   12 25 27.6   -02 29 44     2.954    2.539   56.5   19.5   113   14.7 
2026-08-04 00:00 UT   12 26 52.4   -02 37 42     2.964    2.539   55.9   19.3   113   14.7 
2026-08-05 00:00 UT   12 28 17.6   -02 45 42     2.974    2.538   55.3   19.2   113   14.7 
2026-08-06 00:00 UT   12 29 43.1   -02 53 44     2.985    2.538   54.8   19.0   113   14.7 
2026-08-07 00:00 UT   12 31 09.1   -03 01 49     2.995    2.538   54.2   18.9   113   14.7 
2026-08-08 00:00 UT   12 32 35.4   -03 09 56     3.005    2.538   53.6   18.8   113   14.7 
2026-08-09 00:00 UT   12 34 02.0   -03 18 05     3.015    2.538   53.0   18.6   113   14.7 
2026-08-10 00:00 UT   12 35 29.0   -03 26 16     3.025    2.538   52.5   18.5   113   14.7 
2026-08-11 00:00 UT   12 36 56.4   -03 34 29     3.035    2.538   51.9   18.3   113   14.7 
2026-08-12 00:00 UT   12 38 24.2   -03 42 44     3.045    2.538   51.3   18.2   113   14.8 
2026-08-13 00:00 UT   12 39 52.2   -03 51 00     3.054    2.538   50.8   18.0   113   14.8 
2026-08-14 00:00 UT   12 41 20.7   -03 59 19     3.064    2.537   50.2   17.9   113   14.8 
2026-08-15 00:00 UT   12 42 49.4   -04 07 39     3.073    2.537   49.6   17.7   113   14.8 
2026-08-16 00:00 UT   12 44 18.5   -04 16 01     3.083    2.537   49.1   17.5   113   14.8 
2026-08-17 00:00 UT   12 45 48.0   -04 24 24     3.092    2.537   48.5   17.4   113   14.8 


    Terminology:
            
    delta:  distance between minor planet and earth in AU
    radius: distance between minor planet and sun in AU
    magn:   magnitude (brightness) estimate    
    ra:     right ascension in hours (24h = 360deg)
    dec:    declination in degrees
    elong:  elongation in degrees (angle sun-earth-minor planet)    
    phase:  phase angle in degrees (angle sun-minor planet-earth)        
    AU:     Astronomical Unit (mean distance between earth and sun: 149597870.7 km
    

Orbital elements provided by the MPC (Minor Planet Center).
Calculations by a modified version of AAPlus, a C# implementation of the AA+ project by PJ Naughter from the algorithms presented in the book "Astronomical Algorithms" by Jean Meeus.
NGC2000 dso catalog and star labels from VizieR as provided by the Strasbourg astronomical Data Center.
Tycho2 catalog from the ESO archive.